Location: Alpha Ridge Park
(39.3209°N, 76.9128°W)
Time: 17:03:58
(UTC-04:00)

Vanguard 3 - All Passes

Search period start: 19 May 2019 00:00
Search period end: 29 May 2019 00:00
Orbit: 508 x 3263 km, 33.3° (Epoch: 19 May)

Date Brightness Start Highest point End Pass type
(mag) Time Alt. Az. Time Alt. Az. Time Alt. Az.
19 May - 00:31:56 10° WSW 00:41:59 67° S 00:59:10 10° E visible
19 May - 02:43:44 10° W 02:57:03 65° SSW 03:16:26 10° ESE visible
19 May - 04:57:23 10° W 05:12:41 43° SSW 05:30:27 10° SSE visible
19 May - 07:16:22 10° W 07:27:02 18° SW 07:37:39 10° SSW daylight
19 May - 21:10:29 10° S 21:15:39 22° SE 21:23:11 10° E visible
19 May - 23:18:46 10° WSW 23:26:59 56° SSE 23:41:28 10° E visible
20 May - 01:29:42 10° W 01:40:57 68° S 01:59:17 10° ESE visible
20 May - 03:42:11 10° W 03:56:20 53° SSW 04:15:13 10° SE visible
20 May - 05:57:36 10° W 06:11:25 28° SW 06:26:21 10° S daylight
20 May - 22:06:13 10° SW 22:12:46 40° SSE 22:23:54 10° E visible
21 May - 00:16:10 10° WSW 00:25:25 66° S 00:41:41 10° E visible
21 May - 02:27:45 10° W 02:40:06 61° SSW 02:58:52 10° ESE visible
21 May - 04:41:15 10° W 04:55:25 39° SSW 05:12:40 10° SSE visible
21 May - 07:01:21 10° WSW 07:09:46 14° SW 07:18:23 10° SSW daylight
21 May - 20:54:29 10° SSW 20:59:18 23° SE 21:06:24 10° E visible
21 May - 23:03:04 10° WSW 23:10:35 57° SSE 23:24:05 10° E visible
22 May - 01:13:53 10° W 01:24:15 66° S 01:41:44 10° ESE visible
22 May - 03:26:10 10° W 03:39:15 48° SSW 03:57:29 10° SE visible
22 May - 05:41:46 10° W 05:54:09 24° SW 06:08:02 10° S daylight
22 May - 21:50:27 10° SW 21:56:29 42° SSE 22:06:46 10° E visible
23 May - 00:00:27 10° WSW 00:08:58 65° S 00:24:13 10° E visible
23 May - 02:11:52 10° W 02:23:15 57° SSW 02:41:11 10° SE visible
23 May - 04:25:19 10° W 04:38:15 34° SSW 04:54:37 10° SSE visible
23 May - 06:47:59 10° WSW 06:52:38 11° SW 06:57:25 10° SSW daylight
23 May - 20:38:35 10° SSW 20:43:03 24° SE 20:49:40 10° E visible
23 May - 22:47:24 10° WSW 22:54:19 58° SSE 23:06:47 10° E visible
24 May - 00:58:08 10° W 01:07:41 62° S 01:24:08 10° ESE visible
24 May - 03:10:16 10° W 03:22:17 43° SSW 03:39:34 10° SE visible
24 May - 05:26:19 10° WSW 05:37:01 20° SW 05:49:15 10° S daylight
24 May - 19:29:36 10° SE 19:30:05 10° SE 19:30:36 10° SE daylight
24 May - 21:34:47 10° SW 21:40:19 43° SSE 21:49:45 10° E visible
24 May - 23:44:48 10° WSW 23:52:37 63° S 00:06:46 10° ESE visible
25 May - 01:56:05 10° W 02:06:32 52° SSW 02:23:23 10° SE visible
25 May - 04:09:35 10° W 04:21:13 29° SSW 04:36:17 10° SSE visible
25 May - 20:22:45 10° SSW 20:26:55 25° SSE 20:33:03 10° E daylight
25 May - 22:31:48 10° WSW 22:38:09 57° S 22:49:33 10° E visible
26 May - 00:42:27 10° W 00:51:12 58° S 01:06:30 10° ESE visible
26 May - 02:54:32 10° W 03:05:27 38° SSW 03:21:27 10° SSE visible
26 May - 05:11:26 10° WSW 05:20:01 16° SW 05:29:50 10° S visible
26 May - 19:12:34 10° SSE 19:13:55 11° SE 19:15:24 10° ESE daylight
26 May - 21:19:09 10° SW 21:24:15 44° SSE 21:32:48 10° E visible
26 May - 23:29:12 10° W 23:36:22 60° S 23:49:21 10° ESE visible
27 May - 01:40:24 10° W 01:49:56 46° SSW 02:05:29 10° SE visible
27 May - 03:54:08 10° W 04:04:20 25° SSW 04:17:37 10° SSE visible
27 May - 20:06:58 10° SSW 20:10:53 26° SSE 20:16:31 10° E daylight
27 May - 22:16:15 10° WSW 22:22:04 56° S 22:32:25 10° E visible
28 May - 00:26:50 10° W 00:34:50 53° SSW 00:48:50 10° ESE visible
28 May - 02:38:57 10° W 02:48:45 33° SSW 03:03:10 10° SSE visible
28 May - 04:57:46 10° WSW 05:03:10 12° SW 05:09:08 10° SSW visible
28 May - 18:56:06 10° SSE 18:57:50 12° SE 18:59:47 10° ESE daylight
28 May - 21:03:34 10° SW 21:08:16 44° SSE 21:16:00 10° E visible
28 May - 23:13:40 10° W 23:20:13 56° S 23:32:00 10° ESE visible
